Back to catalog

STARLINK-4651

AliveCommunicationsVLEO
NORAD 53729·PAYLOAD·🇺🇸 United States

Launched Sep 5, 2022 from Cape Canaveral Space Force Station

Loading…

Next Passes (next 24 hours)

TLE

FreshSource: CelesTrak SupGP

Epoch: Sep 14, 2026, 14:47 UTC

1 53729C 22107AF  26257.61645833  .00016743  00000+0  47896-3 0  2570
2 53729  53.1588 117.6013 0001358  94.5587 353.3605 15.35395394    15

Track STARLINK-4651 in real time with AllMySat

Download on the App Store